Location: York
(31.8935°S, 116.7682°E)
Time: 12:45:09
(UTC+08:00)

Vanguard 2 - Visible Passes

Search period start: 06 October 2022 00:00
Search period end: 16 October 2022 00:00
Orbit: 552 x 2934 km, 32.9° (Epoch: 05 October)

Date Brightness Start Highest point End Pass type
(mag) Time Alt. Az. Time Alt. Az. Time Alt. Az.
06 Oct 9.2 02:58:02 26° E 02:58:02 26° E 02:59:48 10° E visible
06 Oct 7.4 04:59:23 12° W 05:03:25 46° NNW 05:07:13 10° NE visible
06 Oct 10.8 20:32:15 10° NNW 20:39:46 22° NNE 20:39:46 22° NNE visible
07 Oct 8.4 03:14:20 40° E 03:14:20 40° E 03:17:03 10° E visible
07 Oct 7.9 05:16:26 10° W 05:20:30 31° NNW 05:24:02 10° NE visible
07 Oct 10.6 20:47:52 10° NNW 20:56:54 28° N 20:56:54 28° N visible
08 Oct 7.6 03:30:41 61° NE 03:30:41 61° NE 03:34:15 10° ENE visible
08 Oct 10.9 18:58:13 10° N 19:06:47 16° NE 19:12:41 12° ENE visible
08 Oct 10.4 21:04:03 10° NW 21:14:08 35° N 21:14:08 35° N visible
09 Oct 7.4 03:47:06 62° NNW 03:47:06 62° NNW 03:51:20 10° ENE visible
09 Oct 10.7 19:12:29 10° N 19:24:13 23° NE 19:29:58 18° ENE visible
09 Oct 10.2 21:20:38 10° NW 21:31:24 41° NNW 21:31:24 41° NNW visible
10 Oct 7.7 04:03:34 42° NW 04:04:10 44° NNW 04:08:17 10° NE visible
10 Oct 10.4 19:27:47 10° NNW 19:41:36 31° NNE 19:47:16 24° ENE visible
10 Oct 10.1 21:37:32 10° NW 21:48:42 47° NNW 21:48:42 47° NNW visible
11 Oct 8.2 04:20:07 28° NW 04:21:09 30° NNW 04:24:59 10° NNE visible
11 Oct 10.2 19:43:43 10° NNW 19:58:57 39° NNE 20:04:34 29° ENE visible
11 Oct 10.0 21:54:43 10° WNW 22:06:00 50° NW 22:06:00 50° NW visible
12 Oct 10.1 02:35:22 11° ENE 02:35:22 11° ENE 02:35:35 10° ENE visible
12 Oct 8.7 04:36:46 18° WNW 04:38:02 20° NW 04:41:17 10° N visible
12 Oct 10.1 20:00:05 10° NW 20:16:19 48° NNE 20:21:50 35° ENE visible
12 Oct 10.0 22:12:08 10° WNW 22:23:16 51° WNW 22:23:16 51° WNW visible
13 Oct 9.9 02:52:06 14° NE 02:52:06 14° NE 02:52:38 10° ENE visible
13 Oct 9.2 04:53:29 11° WNW 04:54:49 12° NW 04:56:37 10° NNW visible
13 Oct 9.9 20:16:48 10° NW 20:33:41 58° NNE 20:39:00 40° E visible
13 Oct 10.1 22:29:42 10° WNW 22:40:27 49° WNW 22:40:27 49° WNW visible
14 Oct 9.7 03:08:54 14° NE 03:08:54 14° NE 03:09:30 10° NE visible
14 Oct 10.7 18:24:01 10° NNW 18:39:14 36° NE 18:52:12 10° E visible
14 Oct 9.8 20:33:48 10° NW 20:51:04 68° NNE 20:56:05 45° E visible
14 Oct 10.2 22:47:23 10° W 22:57:30 46° W 22:57:30 46° W visible
15 Oct 9.7 03:25:48 12° NNE 03:25:48 12° NNE 03:26:08 10° NNE visible
15 Oct 10.5 18:40:09 10° NNW 18:56:29 45° NNE 19:10:07 10° E visible
15 Oct 9.7 20:51:03 10° WNW 21:08:30 77° NNE 21:13:02 51° E visible
15 Oct 10.3 23:05:08 10° W 23:14:27 42° W 23:14:27 42° W visible
